Lexington Weather

Lexington, Massachusetts, USA

47°F
10/22/2019 2:43am 
  • Lexington Conditions: Mostly cloudy
  • Temperature: 46.9°F / 8.3°CWarmer 1.2°F than last hour.
  • Dew Point: 45.5°FIncreased 1.8°Fsince last hour.
  • Relative Humidity: 95%Increased 2.0% since last hour.
  • Wind: Calm, 10-min avg: Calm, gust: None
  • Barometer: 30.12 in Steady
  • Visibility: 9 miles
  • Rain Today: 0.00 in
  •   

Regional Weather Roundup
for Boston, MA

        
000
ASUS41 KBOX 210500
RWRBOX

REGIONAL WEATHER ROUNDUP
NATIONAL WEATHER SERVICE BOSTON/NORTON MA
100 AM EDT MON OCT 21 2019

NOTE:  "FAIR" INDICATES FEW OR NO CLOUDS BELOW 12,000 FEET WITH NO 
SIGNIFICANT WEATHER AND/OR OBSTRUCTIONS TO VISIBILITY.

MAZALL-210600-
EASTERN MASSACHUSETTS
  
CITY           SKY/WX    TMP DP  RH WIND       PRES   REMARKS
BOSTON         CLOUDY    56  48  74 E5        30.05F                  
BEVERLY        CLOUDY    51  48  89 SE6       30.04F                  
LAWRENCE       CLOUDY    51  48  89 NW3       30.07S                  
BEDFORD        CLOUDY    54  48  80 E3        30.04F                  
BLUE HILL      NOT AVBL                                               
NORWOOD        CLOUDY    54  50  86 CALM      30.04F                  
MARSHFIELD     NOT AVBL                                               
PLYMOUTH       CLOUDY    53  48  83 NE6       30.04F                  
TAUNTON        CLOUDY    53  47  79 CALM      30.03F                  
NEW BEDFORD    LGT RAIN  52  49  89 NE3       30.02F                  
$$

MAZALL-210600-
CAPE COD AND THE ISLANDS
  
CITY           SKY/WX    TMP DP  RH WIND       PRES   REMARKS
FALMOUTH       MOCLDY    52  48  87 NE5       30.03S                  
HYANNIS        NOT AVBL                                               
CHATHAM        NOT AVBL                                               
PROVINCETOWN   CLOUDY    53  51  93 E5          N/A                   
NANTUCKET      LGT RAIN  54  51  90 E9        30.01F                  
MARTHAS VNYRD  LGT RAIN  56  54  93 NE7       30.01F                  
$$
 
MAZALL-210600-
CENTRAL AND WESTERN MASSACHUSETTS
  
CITY           SKY/WX    TMP DP  RH WIND       PRES   REMARKS
WORCESTER      CLOUDY    48  46  93 N7        30.05R                  
FITCHBURG      CLOUDY    50  47  89 CALM      30.06S                  
ORANGE         CLOUDY    50  47  89 CALM      30.06R                  
SPRINGFIELD    CLOUDY    50  49  98 NE5       30.02F                  
WESTFIELD      FAIR      50  48  93 N5        30.03F                  
NORTH ADAMS    FAIR      41  40  96 CALM      30.05R                  
PITTSFIELD     FOG       42  41  96 CALM      30.02F VSB 1/2          
$$
 
RIZALL-210600-
RHODE ISLAND
  
CITY           SKY/WX    TMP DP  RH WIND       PRES   REMARKS
PROVIDENCE     CLOUDY    53  49  86 NE9       30.04F                  
NEWPORT        LGT RAIN  53  49  86 NE7       30.02S                  
BLOCK ISLAND   CLOUDY    54  52  93 NE12G21   30.00F                  
SMITHFIELD     CLOUDY   N/A N/A N/A NE5       30.04F                  
WESTERLY       LGT RAIN  55  53  93 NE6       30.00F                  
$$
 
CTZALL-210600-
CONNECTICUT
  
CITY           SKY/WX    TMP DP  RH WIND       PRES   REMARKS
BRADLEY INTL   CLOUDY    52  49  89 N6        30.02F                  
HARTFORD       CLOUDY    51  48  89 NE6       30.03S                  
BRIDGEPORT     LGT RAIN  52  49  89 N12       29.99F                  
DANBURY        CLOUDY    50  47  89 E6        30.01F                  
GROTON         NOT AVBL                                               
NEW HAVEN      LGT RAIN  53  50  89 N10       30.00F                  
CHESTER        LGT RAIN  50  50 100 NE6       30.01S                  
MERIDEN        LGT RAIN  50  47  89 VRB5      30.02S                  
WILLIMANTIC    LGT RAIN  50  48  93 N7        30.05S                  
OXFORD         MOCLDY    49  46  90 NE10      30.01F                  
$$

MEZ002-015-021-024-NHZ003-005-008-011-012-014-VTZ005-008-210600-
NORTHERN NEW ENGLAND
  
CITY           SKY/WX    TMP DP  RH WIND       PRES   REMARKS
PORTLAND ME    CLOUDY    49  45  86 N3        30.07F                  
BANGOR ME      MOCLDY    47  44  90 CALM      30.08F                  
CONCORD NH     CLOUDY    48  47  96 CALM      30.06F FOG              
MANCHESTER NH  CLOUDY    51  50  96 NE3       30.04F                  
NASHUA NH      CLOUDY    50  50 100 CALM      30.06F                  
PORTSMOUTH NH  CLOUDY    50  48  91 CALM      30.05R                  
JAFFREY NH     CLOUDY    48  46  93 CALM      30.05S                  
KEENE NH       FOG       46  45  96 CALM      30.06S VSB 1/4          
BURLINGTON VT  FAIR      42  39  89 CALM      30.05R                  
MT. WASHINGTON PTCLDY    39  30  70 SW5         N/A                   
$$

NYZ052-076-210600-
EASTERN NEW YORK
  
CITY           SKY/WX    TMP DP  RH WIND       PRES   REMARKS
ALBANY         FOG       46  44  93 NW6       30.07R VSB 1/4          
NEW YORK CITY  LGT RAIN  53  49  86 NE14      29.97F                  
$$
 
ANZALL-210600-
MARINE OBSERVATIONS
  
STATION/POSITION TIME  TEMP    WIND        PRES    VSBY  WAVE
                       AIR SEA DIR/SP/G                  HT/PER
                 (UTC) (F)     (DEG/KT/KT) (MB)    (MI)  (FT/S)
BOSTON BUOY      0350   55 57  110/  8/ 10 1017.2          1/10
BUZZARDS BAY     0400   56      50/ 13/ 14 1016.8F
NANTUCKET SOUND  0440   55 56              1016.6
MASS BAY-STELLWA 0404   56 56  120/  6/  8 1017.5R  1 7/8  1/ 3
ISLE OF SHOALS   0400   54      80/  6/  6 1017.0F
S OF BLOCK IS    0430      60                N/A           3/ 4
$$

......................KEY.........................
  SKY/WX - SKY CONDITION/PRESENT WEATHER
  TMP    - TEMPERATURE IN FAHRENHEIT
  DWPT   - DEWPOINT IN FAHRENHEIT
  RH     - RELATIVE HUMIDITY IN PERCENT
  WIND   - DIRECTION AND SPEED IN MPH
  PRES   - MEAN SEA LEVEL PRESSURE IN INCHES OF HG
  WCI    - WIND CHILL INDEX
  VSB    - VISIBILITY IN MILES
  HX     - HEAT INDEX
  TC     - TEMPERATURE IN CELSIUS
  VRB    - VARIABLE WIND DIRECTION
  N/A    - NOT AVAILABLE
  
      

Other recent Regional Weather Roundups

Tue Oct 22, 2:10am

Tue Oct 22, 2:00am

Tue Oct 22, 1:10am

Tue Oct 22, 1:00am

Tue Oct 22, 12:10am

Tue Oct 22, 12:00am

Mon Oct 21, 11:10pm

Mon Oct 21, 11:00pm

Mon Oct 21, 10:10pm

Mon Oct 21, 10:01pm

Mon Oct 21, 9:10pm

Mon Oct 21, 9:00pm

Mon Oct 21, 8:10pm

Mon Oct 21, 8:00pm

Mon Oct 21, 7:10pm

Mon Oct 21, 7:01pm

Mon Oct 21, 6:10pm

Mon Oct 21, 6:01pm

Mon Oct 21, 5:10pm

Mon Oct 21, 5:01pm

Mon Oct 21, 4:10pm

Mon Oct 21, 4:00pm

Mon Oct 21, 3:10pm

Mon Oct 21, 3:01pm

Mon Oct 21, 2:10pm

Mon Oct 21, 2:00pm

Mon Oct 21, 1:10pm

Mon Oct 21, 1:01pm

Mon Oct 21, 12:10pm

Mon Oct 21, 12:00pm

Mon Oct 21, 11:10am

Mon Oct 21, 11:00am

Mon Oct 21, 10:10am

Mon Oct 21, 10:00am

Mon Oct 21, 9:10am

Mon Oct 21, 9:00am

Mon Oct 21, 7:10am

Mon Oct 21, 7:00am

Mon Oct 21, 6:10am

Mon Oct 21, 6:00am

Mon Oct 21, 5:10am

Mon Oct 21, 5:00am

Mon Oct 21, 4:10am

Mon Oct 21, 4:00am

Mon Oct 21, 3:10am

Mon Oct 21, 3:00am

Mon Oct 21, 2:10am

Mon Oct 21, 2:01am

Mon Oct 21, 1:10am

Mon Oct 21, 12:10am

Mon Oct 21, 12:00am

Sun Oct 20, 11:10pm

Sun Oct 20, 11:00pm

Sun Oct 20, 10:10pm

Sun Oct 20, 10:00pm

Sun Oct 20, 9:10pm

Sun Oct 20, 9:01pm

Sun Oct 20, 8:10pm

Sun Oct 20, 8:00pm

Sun Oct 20, 7:10pm

Sun Oct 20, 7:01pm

Sun Oct 20, 6:10pm

Sun Oct 20, 6:00pm

Sun Oct 20, 5:10pm

Sun Oct 20, 5:00pm

Sun Oct 20, 4:10pm

Sun Oct 20, 4:00pm

Sun Oct 20, 3:10pm

Sun Oct 20, 3:00pm

Sun Oct 20, 2:10pm

Sun Oct 20, 2:01pm

Sun Oct 20, 1:10pm

Sun Oct 20, 1:01pm

Sun Oct 20, 12:10pm

Sun Oct 20, 12:00pm

Sun Oct 20, 11:10am

Sun Oct 20, 11:00am

Sun Oct 20, 10:10am

Sun Oct 20, 10:00am

Sun Oct 20, 9:10am

Sun Oct 20, 9:00am

Sun Oct 20, 8:10am

Sun Oct 20, 8:00am

Sun Oct 20, 7:10am

Sun Oct 20, 7:00am

Sun Oct 20, 6:10am

Sun Oct 20, 6:00am

Sun Oct 20, 5:10am

Sun Oct 20, 5:00am

Sun Oct 20, 4:10am

Sun Oct 20, 4:00am

Sun Oct 20, 3:10am

Sun Oct 20, 3:00am

Sun Oct 20, 2:10am

Sun Oct 20, 2:00am

Sun Oct 20, 1:10am

Sun Oct 20, 1:00am

Sun Oct 20, 12:10am

Sun Oct 20, 12:00am

Sat Oct 19, 11:10pm

Sat Oct 19, 11:00pm

Sat Oct 19, 10:10pm

Sat Oct 19, 10:00pm

Sat Oct 19, 9:10pm

Sat Oct 19, 9:00pm

Sat Oct 19, 8:10pm

Sat Oct 19, 8:00pm

Sat Oct 19, 7:10pm

Sat Oct 19, 7:00pm

Sat Oct 19, 6:10pm

Sat Oct 19, 6:00pm

Sat Oct 19, 5:10pm

Sat Oct 19, 5:00pm

Sat Oct 19, 4:10pm

Sat Oct 19, 4:00pm

Sat Oct 19, 3:10pm

Sat Oct 19, 3:01pm

Sat Oct 19, 2:10pm

Sat Oct 19, 2:00pm

Sat Oct 19, 1:10pm

Sat Oct 19, 1:01pm

Sat Oct 19, 12:10pm

Sat Oct 19, 12:00pm

Sat Oct 19, 11:10am

Sat Oct 19, 11:01am

Sat Oct 19, 10:10am

Sat Oct 19, 10:00am

Sat Oct 19, 9:10am

Sat Oct 19, 9:00am

Sat Oct 19, 8:10am

Sat Oct 19, 8:00am

Sat Oct 19, 7:10am

Sat Oct 19, 7:00am

Sat Oct 19, 6:10am

Sat Oct 19, 6:00am

Sat Oct 19, 5:10am

Sat Oct 19, 5:00am

Sat Oct 19, 4:10am

Sat Oct 19, 4:00am

Sat Oct 19, 3:10am

Sat Oct 19, 3:00am

Meta data:

ID: 8746a150-0c9f-4de9-af87-22c4532e76e2
Link: https://api.weather.gov/products/8746a150-0c9f-4de9-af87-22c4532e76e2